Location: Capel Gartheli
(52.1833°N, 4.0667°W)
Time: 18:31:39
(UTC+00:00)

ATLAS CENTAUR R/B - Pass Details

Date: 18 February 2020
Orbit: 466 x 681 km, 64.7° (Epoch: 28 March)

Event Time Altitude Azimuth Distance (km) Brightness Sun altitude
Exits shadow 03:46:17 22° 88° (E) 1,368 3.8 -33.8°
Drops below altitude 10° 03:48:36 10° 62° (ENE) 1,983 5.0 -33.4°
Sets 03:51:04 0° 50° (NE) 2,853 6.0 -33.1°
